Погода в Затурцах

Украина / Волынская область     50°46′49″N   24°50′14″E
темп.,
°C
ветер,
м/с
пор.,
м/с
влажн.,
%
обл.,
%
осадки,
мм/ч
давл.,
гПа
погр.,
м
26 января, вт
вт2623:00−1зсз71396100 0.5 996699
02:00−1сз81496100 2.1 996884
05:00−1зсз101796100 3.3 9981071
08:00−1зсз111894100 6.0 1000974
11:00−1з111691100 1.0 1002960
14:00−1з101589100 1.3 10041086
17:00−1з91487100 0.1 10061041
20:00−2з71490100 0.1 1007838
27 января, ср
ср2723:00−2з7139194 0.1 1008689
02:00−2з6119293 0.1 1009783
05:00−2з5993100 0.1 1009608
08:00−2з6109198 0.2 1009662
11:00−2з61093100 0.0 1010566
14:00−1зсз4688100 0.1 1010686
17:00−2зсз3696100 0.1 1009174
20:00−3сз41096100 0.1 1009372
28 января, чт
чт2823:00−3сз41096100 0.2 1009370
02:00−4сз4897100 0.3 1009315
05:00−4сз4996100 0.1 1008342
08:00−5сз4896100 0.3 1008271
11:00−4сз4695100 0.1 1007338
14:00−3зсз5793100 0.1 1005466
17:00−3зсз3691100 0.0 1003515
20:00−4юз369795 0.3 1002219
29 января, пт
пт2923:00−2з51193100 0.6 1000440
02:00−4з6119498 0.6 999438
05:00−7з5119497 0.1 998331
08:00−7з5119487 0.1 997318
11:00−5з7119295 0.1 997731
14:00−3з7118898 0.2 997881
17:00−4з61190100 0.1 998794
20:00−5з6129492 0.1 999413
30 января, сб
сб3023:00−5з61194100 0.1 999456
02:00−5зсз51094100 0.1 1000495
05:00−7з5109499 0.0 999262
08:00−8з499699 0.0 999222
11:00−5з4696100 0.1 1000386
14:00−3з4692100 0.1 999482
17:00−3зюз2595100 0.1 999255
20:00−3зюз3797100 0.8 1000315